Flag for Brazil Weather past 2 weeks in Porto Velho, Rondônia, Brazil

Now
84 °F

Sunny.


Feels Like: 87 °F
Forecast: 72 / 90 °F
Wind: 9 mph from South

Location: Porto Velho Aeroporto

Current Time: Aug 27, 2014 at 12:00:35 PM

Latest Report: Aug 27, 2014 at 11:00 AM


Visibility: 10 mi

Pressure: 29.92 "Hg

Humidity: 58%

Dew point: 68 °F

Location of Porto VelhoLocation

Historic Weather in Porto Velho — Graph

°F

Porto Velho temperature yesterday

Maximum temperature yesterday: 97 °F (at 3:00 PM)
Minimum temperature yesterday: 73 °F (at 3:00 AM)
Average temperature yesterday: 84 °F

Past Weeks' High & Low Weather Summary

 TemperatureHumidityPressure
High97 °F (Aug 19, 4:00 PM)94% (Aug 13, 12:00 AM)30.04 "Hg (Aug 13, 12:00 AM)
Low66 °F (Aug 15, 6:00 AM)17% (Aug 20, 1:00 PM)29.71 "Hg (Aug 26, 4:00 PM)
Average81 °F64%29.88 "Hg
* Reported Aug 12 10:00 AM — Aug 27 10:00 AM, Porto Velho, Weather by CustomWeather, © 2014

Note: Actual official high and low records may vary slightly from our data, if they occured in-between our weather recording intervals... More about our weather records

Advertising

Porto Velho weather history for previous 24 hours

 ConditionsComfort  
Time TempWeatherWind HumidityBarometerVisibility
10:00 AM
Aug 27
82 °FSunny.2 mph66%29.92 "Hg10 mi
9:00 AM79 °FClear.5 mph79%29.92 "Hg5 mi
8:00 AM77 °FFog.No wind79%29.89 "Hg3 mi
7:00 AM73 °FFog.No wind89%29.89 "Hg2 mi
6:00 AM73 °FClear.2 mph89%29.86 "Hg4 mi
5:00 AM75 °FClear.No wind83%29.86 "Hg4 mi
4:00 AM75 °FClear.No wind83%29.86 "Hg5 mi
3:00 AM75 °FPassing clouds.No wind83%29.86 "Hg4 mi
2:00 AM77 °FPassing clouds.No wind79%29.86 "Hg4 mi
1:00 AM79 °FThundershowers. Passing clouds.3 mph74%29.86 "Hg3 mi
12:00 AM81 °FPassing clouds.6 mph66%29.89 "Hg4 mi
11:00 PM
Aug 26
82 °FPassing clouds.5 mph62%29.89 "Hg4 mi
10:00 PM82 °FThundershowers. Passing clouds.No wind70%29.86 "Hg3 mi
9:00 PM86 °FClear.5 mph59%29.83 "Hg3 mi
8:00 PM82 °FClear.No wind70%29.80 "Hg3 mi
7:00 PM84 °FClear.No wind62%29.77 "Hg3 mi
6:00 PM88 °FHaze.No wind55%29.74 "Hg3 mi
5:00 PM95 °FHaze.2 mph39%29.71 "Hg3 mi
4:00 PM97 °FHaze.No wind34%29.71 "Hg3 mi
3:00 PM97 °FHaze.No wind34%29.74 "Hg3 mi
2:00 PM95 °FHaze.2 mph41%29.80 "Hg3 mi
1:00 PM95 °FHaze.8 mph44%29.83 "Hg3 mi
12:00 PM95 °FHaze.6 mph41%29.86 "Hg3 mi
Weather by CustomWeather, © 2014

See weather overviewHow to use our weather pages